This is the latest recevied weather packets stored in our database for station/object KM8V-8. If no packets are shown the sender has not sent any weather packets the latest 10 day(s).
| Time | Temp. | Humidity | Pressure | Rain* | Wind** | Luminosity | Snow |
|---|---|---|---|---|---|---|---|
| 1777557631 | 8.33° C | 78% | 1013.6 hPa | 0 mm | - | 472 W/m² | - |
| 1777557318 | 7.78° C | 79% | 1013.5 hPa | 0 mm | - | 541 W/m² | - |
| 1777557030 | 7.78° C | 78% | 1013.5 hPa | 0 mm | - | 411 W/m² | - |
| 1777556730 | 7.78° C | 78% | 1013.5 hPa | 0 mm | - | 415 W/m² | - |
| 1777556418 | 7.78° C | 79% | 1013.4 hPa | 0 mm | - | 404 W/m² | - |
| 1777556118 | 7.22° C | 81% | 1013.4 hPa | 0 mm | - | 546 W/m² | - |
| 1777555830 | 7.22° C | 81% | 1013.4 hPa | 0 mm | - | 373 W/m² | - |
| 1777555530 | 7.22° C | 82% | 1013.4 hPa | 0 mm | - | 403 W/m² | - |
| 1777555219 | 7.22° C | 83% | 1013.4 hPa | 0 mm | - | 315 W/m² | - |
| 1777554920 | 7.22° C | 83% | 1013.3 hPa | 0 mm | - | 249 W/m² | - |
| 1777554619 | 6.67° C | 84% | 1013.3 hPa | 0 mm | - | 247 W/m² | - |
| 1777554359 | 6.67° C | 85% | 1013.2 hPa | 0 mm | - | 276 W/m² | - |
| 1777554059 | 6.67° C | 85% | 1013.2 hPa | 0 mm | - | 166 W/m² | - |
| 1777553759 | 6.67° C | 84% | 1013.3 hPa | 0 mm | - | 140 W/m² | - |
| 1777553459 | 6.67° C | 85% | 1013.2 hPa | 0 mm | - | 153 W/m² | - |
| 1777553159 | 6.67° C | 86% | 1013.2 hPa | 0 mm | - | 172 W/m² | - |
| 1777552860 | 6.67° C | 88% | 1013.1 hPa | 0 mm | - | 247 W/m² | - |
| 1777552560 | 6.11° C | 89% | 1013.1 hPa | 0 mm | - | 297 W/m² | - |
| 1777552259 | 6.11° C | 91% | 1013.2 hPa | 0 mm | - | 304 W/m² | - |
| 1777551960 | 5.56° C | 92% | 1013.3 hPa | 0 mm | - | 196 W/m² | - |
| 1777551660 | 5.56° C | 93% | 1013.3 hPa | 0 mm | - | 146 W/m² | - |
| 1777525545 | 6.11° C | 99% | 1011.9 hPa | 0.76 mm | - | 0 W/m² | - |
| 1777525244 | 6.11° C | 99% | 1011.9 hPa | 0.76 mm | - | 0 W/m² | - |
| 1777524945 | 6.11° C | 99% | 1011.9 hPa | 0.76 mm | - | 0 W/m² | - |
| 1777524645 | 6.11° C | 99% | 1011.9 hPa | 0.76 mm | - | 0 W/m² | - |
* Rain latest hour (hover to see other rain measurements)
** Current wind speed in m/s (hover to see current wind gust speed)